Temperature
17 17 17 17 17 17 17 17 17 16 17 17 17 17 17 17 17 17 17 17 18 18 18 18 18 18 18 18 18 18 17 17 17 17 17 17 17 17 17 17 17 17 17
16 16 16 16 16 16 16 16 16 16 16 16 16 16 16 17 17 17 17 17 17 18 18 18 18 18 18 18 18 18 18 18 17 17 17 17 17 17 17 17 17 17 17
15 15 15 15 15 15 15 15 15 15 16 16 16 16 16 16 16 16 16 17 17 17 18 18 18 18 18 18 18 18 18 18 18 17 17 17 17 17 17 17 17 17 17
15 15 14 15 15 15 15 15 15 15 15 15 15 15 16 16 16 16 16 16 16 16 17 17 18 18 18 18 18 18 18 18 18 18 17 17 17 17 17 17 17 17 17
14 14 14 14 14 14 14 15 15 14 15 15 15 15 15 15 15 16 16 16 16 16 16 17 17 18 18 18 18 18 18 18 17 18 17 17 17 17 17 17 17 17 17
13 13 13 13 13 14 14 14 14 13 14 14 15 15 15 15 15 16 16 16 16 16 16 16 16 17 17 18 18 18 18 18 18 17 17 17 17 17 17 17 17 17 17
12 12 12 12 13 13 13 13 13 14 14 14 14 15 16 16 16 15 15 16 16 15 15 16 16 16 16 17 17 17 18 18 18 18 17 17 17 17 17 17 17 17 17
11 12 11 12 12 12 12 12 12 13 14 14 14 15 16 17 16 16 15 15 15 15 15 15 15 16 16 16 16 17 17 18 18 18 17 17 17 17 17 17 17 17 17
11 11 11 11 11 12 12 12 12 12 13 13 14 14 15 16 16 16 15 15 15 15 15 15 15 15 16 16 16 16 17 17 17 17 17 17 17 17 17 17 17 17 17
11 11 10 10 11 11 11 11 12 12 12 13 14 13 13 13 14 15 16 15 15 15 15 15 15 15 15 15 16 16 16 17 17 17 17 17 17 17 17 17 17 17 17
10 10 10 10 10 10 10 10 11 11 12 12 13 13 13 13 13 13 15 15 15 15 15 15 15 15 15 15 15 16 16 16 17 17 17 17 17 17 17 17 17 16 17
11 10 10 10 10 10 10 10 10 10 11 11 11 12 13 13 14 14 14 14 15 15 14 14 14 15 15 15 15 15 15 16 16 16 16 17 17 17 17 17 16 16 16
12 10 10 10 10 9 9 9 9 10 10 10 10 11 12 12 13 13 13 14 14 14 14 14 14 14 14 15 15 15 15 16 16 16 16 16 16 16 16 16 16 16 16
11 10 10 9 9 9 9 9 9 10 10 9 10 10 11 11 12 12 12 13 13 14 15 14 14 14 14 14 14 14 15 15 15 16 16 16 16 16 16 16 16 16 16
11 10 10 9 9 9 9 9 9 9 9 9 10 10 10 11 11 11 12 12 12 13 14 14 14 14 14 14 14 14 14 15 15 16 16 16 16 16 16 16 16 16 16
10 10 10 10 9 9 9 9 9 9 9 9 9 9 9 10 11 11 11 11 12 12 13 14 13 13 13 13 14 14 14 14 15 15 15 15 16 16 16 16 16 16 16
10 10 10 10 9 9 9 9 9 9 9 9 9 9 9 9 9 10 11 11 11 12 12 13 13 13 13 13 14 14 14 14 15 15 15 15 15 16 16 16 16 16 16
10 10 10 9 9 9 9 9 9 9 9 9 9 9 9 9 9 9 10 10 11 11 11 12 12 12 12 13 13 14 14 14 14 14 14 14 15 15 15 15 16 16 16
10 10 9 9 9 9 9 9 8 8 8 8 8 8 8 9 9 9 9 10 10 11 11 11 12 12 12 12 13 13 13 14 14 14 14 14 14 14 15 15 15 15 16
10 10 9 9 9 9 9 9 8 8 8 8 8 8 8 8 8 8 9 9 9 10 10 11 11 12 12 12 12 13 13 13 14 14 14 14 14 14 14 15 15 15 15
10 9 9 9 9 9 9 9 8 8 8 8 8 8 8 8 8 8 8 9 9 9 10 11 11 12 12 12 12 13 13 13 13 13 14 14 14 14 14 14 15 15 15
9 9 9 9 9 9 9 8 8 8 8 8 8 8 8 8 8 8 8 8 8 8 9 10 11 11 12 12 12 12 12 12 12 13 13 13 14 14 14 14 15 15 15
9 9 9 9 8 8 8 9 8 8 8 8 8 8 8 9 8 8 8 8 8 8 8 8 9 10 11 11 11 11 12 12 12 13 13 13 13 13 14 14 14 15 15
9 9 9 9 8 8 8 8 8 8 8 8 8 8 8 8 8 8 8 8 8 8 8 8 8 9 9 10 10 10 11 12 12 12 12 12 13 13 13 13 14 14 15
9 9 8 8 8 8 8 8 8 8 8 8 8 8 8 8 8 7 7 7 7 8 8 8 8 8 8 9 9 10 10 11 11 12 12 12 12 12 12 12 13 13 14
9 9 8 8 8 8 9 9 8 8 8 8 8 8 8 8 7 7 7 7 7 7 8 8 8 8 8 9 9 9 10 11 11 11 11 12 12 12 12 12 12 12 13
Wind_Speed
4 4 3 4 6 5 6 5 6 6 8 9 11 12 13 14 14 14 11 14 17 18 18 18 18 20 22 23 23 22 21 21 20 20 20 19 18 18 18 17 16 15 15
5 4 4 4 5 5 4 4 5 6 7 7 9 10 12 14 14 15 16 14 19 20 20 20 20 20 22 24 25 25 24 24 23 22 22 21 20 20 20 19 18 17 16
5 5 4 4 3 4 4 5 5 6 7 7 9 9 10 12 14 15 16 16 16 21 23 23 22 22 22 24 26 27 27 26 25 25 24 23 23 22 22 21 20 19 19
6 6 5 4 3 5 5 5 6 6 6 7 8 8 9 9 12 14 16 16 16 16 21 26 25 24 24 25 26 27 29 29 28 27 26 26 25 24 23 23 22 21 21
6 7 5 4 5 6 6 6 6 6 7 8 8 9 10 10 11 13 14 16 17 17 18 20 26 26 26 26 27 28 29 30 30 30 29 28 27 26 25 25 24 23 23
6 8 6 4 7 6 6 5 6 6 8 8 9 10 10 11 11 11 13 13 14 17 19 19 19 23 28 27 28 29 29 31 32 31 31 30 29 28 27 27 26 25 24
6 6 7 5 6 6 6 8 7 8 8 7 9 10 10 12 11 10 10 10 12 14 16 17 18 18 19 28 30 29 29 31 32 33 32 31 30 30 29 28 28 27 26
6 6 6 7 6 6 7 7 6 8 8 6 7 9 9 8 7 8 7 8 9 9 11 15 18 19 19 18 23 30 30 31 32 33 33 32 31 31 31 30 29 29 28
6 6 6 7 7 8 6 6 7 8 8 7 6 6 6 6 6 5 6 6 6 6 8 9 14 18 19 19 19 25 30 31 32 33 34 34 33 33 32 31 31 31 30
6 6 6 6 6 7 6 7 6 7 8 9 6 6 7 7 7 7 6 5 5 6 7 7 9 12 16 17 18 19 23 29 31 33 34 34 34 33 32 32 32 32 31
5 5 5 5 5 6 6 7 7 8 8 9 8 8 8 7 9 8 10 9 7 6 6 7 8 9 12 14 16 20 21 25 28 31 33 34 33 32 32 33 33 33 32
4 4 5 5 6 6 6 7 7 9 8 9 9 9 9 9 9 8 9 10 10 8 7 7 8 8 9 12 16 18 20 23 26 28 30 32 33 33 33 33 34 34 34
5 3 5 5 6 5 6 7 7 8 9 9 9 10 10 9 9 9 10 10 11 10 8 7 6 6 7 9 11 14 18 22 25 28 29 31 32 34 34 34 34 34 34
6 6 6 7 7 8 8 7 8 8 7 8 10 10 10 11 10 10 10 10 11 11 9 8 4 4 4 5 7 11 14 19 24 27 29 31 32 33 35 35 35 35 34
7 7 8 8 9 9 9 9 9 8 8 9 10 10 10 10 10 10 10 10 10 11 11 7 5 4 3 5 5 8 11 14 20 24 27 29 30 31 33 35 35 34 34
9 9 10 10 10 10 10 10 11 10 9 10 9 10 10 11 10 10 10 10 10 11 12 9 6 6 6 6 5 7 9 11 15 19 22 24 26 28 30 32 33 34 33
9 10 10 10 11 11 11 10 11 11 12 12 11 11 11 11 10 10 10 10 10 11 12 11 9 7 7 8 5 6 7 7 10 15 18 19 21 23 26 28 31 32 32
11 11 11 11 12 12 11 11 12 12 12 12 12 12 12 11 11 11 11 11 11 11 12 13 11 9 8 7 6 5 5 5 7 11 15 16 17 20 22 24 27 29 30
11 11 11 12 12 12 12 12 12 12 13 12 12 12 12 12 12 11 11 12 11 11 11 12 12 9 8 6 5 5 4 3 5 7 10 13 15 16 18 21 23 26 27
11 12 12 12 12 12 12 12 12 12 12 12 12 12 13 13 13 12 11 12 12 12 12 12 12 10 9 7 6 5 4 4 4 5 5 7 10 12 15 17 20 22 24
12 12 12 12 12 12 12 11 11 12 12 13 13 13 13 12 11 11 12 12 11 11 11 11 11 11 10 7 7 5 5 3 4 4 5 5 6 7 9 14 17 19 21
12 12 12 13 13 11 5 3 10 13 13 14 14 13 13 13 14 16 17 17 15 14 13 12 11 11 10 9 7 6 5 5 4 5 5 4 5 5 5 7 13 18 20
12 12 12 12 13 12 8 9 10 13 15 15 14 13 13 12 10 13 15 19 19 20 18 16 15 14 12 10 9 9 7 7 5 5 6 3 3 4 3 4 12 16 18
11 11 12 12 12 12 9 10 10 13 15 16 15 15 14 14 13 12 13 14 14 15 16 17 16 16 15 11 9 9 8 6 4 4 5 3 3 2 3 4 9 12 15
11 12 12 12 12 13 10 11 11 12 13 15 15 15 14 14 10 8 12 15 15 15 14 14 14 14 11 9 8 9 8 7 6 5 4 3 4 3 2 3 5 10 13
12 12 12 12 13 13 10 9 10 10 13 13 13 13 13 15 9 7 12 14 15 15 14 13 15 16 17 16 14 13 12 10 7 5 5 5 5 4 3 2 2 5 8
Wind_Direction
294 286 271 263 267 264 255 257 261 264 264 255 251 247 244 241 242 241 237 202 208 217 223 226 225 222 219 214 211 209 207 205 201 200 199 197 194 192 191 190 189 188 187
309 292 270 262 263 265 276 277 273 270 267 267 260 256 253 248 243 243 243 227 213 217 223 227 228 226 223 219 215 212 210 208 205 203 202 201 199 197 196 195 194 193 193
323 301 279 264 269 270 262 262 267 264 263 263 261 260 255 252 250 244 244 243 234 219 219 225 228 228 226 223 219 216 212 210 207 205 205 204 203 201 200 199 198 197 197
328 302 290 280 291 276 269 269 267 274 274 273 271 269 264 254 250 248 245 241 241 237 223 220 224 226 227 226 223 219 215 211 209 206 206 206 205 205 203 202 201 201 201
330 304 295 308 286 279 279 281 283 286 285 282 277 265 262 258 253 248 245 243 239 237 237 222 216 221 227 228 226 222 218 214 210 208 207 207 207 206 206 205 204 203 203
337 319 293 298 290 283 281 282 288 279 284 282 282 280 270 263 255 249 247 243 237 235 234 236 226 222 222 226 226 223 220 216 212 210 209 209 208 208 208 208 207 206 206
340 323 313 309 293 289 293 290 284 280 276 285 283 279 269 254 249 247 244 246 240 235 235 234 234 233 224 219 223 223 222 219 215 211 210 210 210 210 210 210 209 208 208
329 320 331 306 305 301 281 282 278 287 288 285 289 295 288 268 232 240 239 238 244 242 240 237 233 232 236 227 219 218 221 220 216 212 210 210 211 211 211 211 211 210 210
318 321 314 311 312 296 294 294 285 275 285 285 278 290 297 300 315 259 246 244 244 248 250 248 240 234 232 232 229 216 216 217 217 214 211 210 210 211 211 212 212 212 211
306 306 304 304 303 299 302 286 291 291 277 280 274 264 273 294 293 292 275 259 256 259 262 256 248 239 234 233 230 228 218 215 215 214 212 210 210 210 212 213 214 214 213
292 298 302 303 298 293 305 306 300 289 283 279 285 282 277 271 264 272 286 292 282 271 269 264 252 244 240 236 234 228 221 217 215 215 213 210 210 211 214 216 217 217 216
289 290 292 295 290 299 302 293 293 280 281 288 286 282 280 280 281 280 283 287 288 283 276 272 262 245 239 237 235 231 222 219 217 216 214 212 210 211 214 218 219 220 219
296 302 296 287 290 292 289 289 284 287 282 279 276 277 279 280 281 283 283 286 288 287 276 265 263 251 243 242 239 235 229 223 220 217 216 214 212 212 214 217 220 221 222
298 307 286 278 278 279 281 281 281 274 274 277 276 277 279 274 275 275 278 285 287 285 276 268 275 262 257 256 245 238 237 228 222 219 217 217 215 213 212 215 217 219 220
282 282 281 278 276 274 274 275 273 277 275 272 274 267 265 274 270 270 271 273 279 284 284 285 272 269 282 277 259 249 244 232 223 220 218 217 216 213 212 212 213 214 216
278 278 277 277 276 274 270 268 271 264 265 266 268 277 278 275 277 274 270 268 267 272 279 284 279 288 300 296 267 262 249 234 222 217 216 216 216 216 214 212 211 212 213
276 274 275 277 277 276 274 269 270 274 267 267 268 266 264 271 275 277 272 268 266 266 270 276 276 282 287 289 286 268 255 233 221 213 212 212 213 214 214 212 210 210 211
272 274 276 277 278 277 275 272 271 271 268 267 266 267 266 265 263 266 271 271 269 270 271 275 278 279 274 281 281 274 257 230 217 210 209 211 212 213 212 211 209 208 208
274 277 278 279 279 279 277 274 271 269 268 267 266 265 265 265 265 266 267 268 269 265 264 269 271 271 272 267 269 262 249 225 204 192 202 207 209 211 211 208 206 205 204
276 278 280 281 281 279 277 274 270 268 267 267 265 264 263 261 260 262 264 262 265 269 266 264 266 264 260 259 253 248 237 214 195 176 179 185 193 201 205 203 202 200 200
278 280 282 281 279 277 272 274 276 273 271 269 266 262 260 259 269 270 271 272 269 263 263 260 260 261 256 252 252 246 237 220 201 182 172 177 175 185 193 197 197 195 195
281 282 280 279 279 277 294 295 276 280 277 272 269 267 264 251 242 237 248 260 269 270 270 271 265 262 264 259 258 254 241 222 215 190 177 173 177 173 180 189 183 185 188
284 281 279 278 278 277 262 243 250 269 271 270 269 267 266 265 249 251 237 233 244 247 253 264 269 271 272 262 262 255 242 238 232 184 171 160 160 159 144 134 159 173 179
285 282 280 280 279 276 252 239 244 261 265 265 265 264 264 267 264 262 262 256 251 244 237 239 250 260 265 275 271 264 259 248 237 189 175 157 139 120 108 112 144 163 170
284 282 279 279 277 277 257 236 241 269 265 265 264 263 262 263 255 237 257 263 263 259 247 242 257 265 286 294 285 269 252 231 220 194 181 157 137 109 91 92 111 143 158
282 282 282 280 279 279 267 230 228 264 267 268 267 263 250 244 253 224 249 256 258 258 259 246 233 241 249 248 240 245 247 237 220 195 178 164 148 139 125 86 99 126 136
Height
1554 1554 1553 1552 1553 1553 1553 1553 1554 1554 1554 1554 1555 1556 1557 1558 1559 1560 1561 1561 1563 1565 1567 1569 1572 1574 1576 1578 1580 1582 1584 1586 1589 1591 1594 1596 1598 1601 1602 1604 1606 1608 1609
1551 1550 1550 1550 1550 1551 1550 1550 1550 1550 1550 1550 1550 1551 1551 1553 1553 1554 1556 1557 1557 1559 1562 1564 1567 1569 1572 1574 1577 1579 1581 1583 1586 1588 1591 1594 1596 1599 1601 1603 1605 1607 1608
1548 1548 1548 1548 1548 1547 1547 1547 1547 1546 1546 1547 1546 1546 1546 1547 1548 1548 1549 1551 1552 1553 1555 1557 1560 1563 1566 1569 1572 1575 1577 1580 1582 1585 1588 1591 1593 1596 1599 1601 1603 1605 1607
1545 1545 1546 1546 1544 1545 1545 1545 1544 1544 1544 1543 1543 1542 1542 1541 1541 1542 1543 1544 1545 1547 1548 1550 1553 1557 1560 1563 1566 1569 1572 1575 1578 1581 1584 1587 1590 1593 1596 1598 1601 1603 1605
1543 1543 1543 1543 1542 1543 1543 1542 1542 1541 1541 1540 1539 1538 1537 1536 1536 1536 1536 1537 1538 1539 1542 1543 1545 1549 1553 1556 1560 1563 1567 1570 1573 1576 1579 1583 1586 1589 1592 1595 1598 1600 1603
1541 1541 1541 1540 1540 1540 1540 1539 1538 1537 1537 1536 1535 1534 1533 1532 1531 1531 1531 1531 1532 1532 1534 1537 1539 1541 1544 1548 1552 1556 1560 1563 1567 1571 1574 1578 1581 1585 1588 1591 1594 1597 1600
1539 1538 1538 1537 1537 1537 1536 1536 1536 1535 1534 1533 1532 1530 1528 1526 1525 1525 1525 1525 1526 1526 1527 1529 1531 1534 1537 1540 1544 1548 1552 1556 1560 1564 1568 1572 1576 1580 1583 1587 1590 1593 1596
1537 1537 1535 1535 1535 1533 1533 1532 1532 1532 1532 1531 1530 1528 1525 1524 1521 1521 1520 1519 1520 1520 1521 1522 1524 1526 1529 1533 1535 1539 1544 1548 1553 1557 1562 1566 1570 1574 1578 1582 1585 1589 1592
1535 1534 1533 1532 1531 1531 1531 1530 1529 1529 1529 1528 1527 1527 1524 1520 1519 1518 1517 1516 1515 1515 1516 1516 1517 1519 1521 1524 1528 1531 1535 1540 1545 1549 1554 1559 1563 1568 1572 1576 1580 1583 1587
1533 1532 1530 1529 1528 1528 1527 1527 1527 1526 1525 1525 1525 1523 1523 1521 1520 1516 1515 1514 1512 1511 1511 1511 1511 1512 1513 1516 1519 1523 1526 1531 1536 1541 1546 1551 1556 1560 1565 1569 1574 1578 1581
1531 1530 1528 1526 1525 1525 1524 1523 1522 1522 1522 1522 1522 1521 1520 1518 1517 1515 1512 1511 1510 1508 1507 1506 1505 1506 1507 1508 1511 1514 1518 1523 1528 1533 1538 1543 1548 1553 1558 1563 1567 1571 1575
1530 1528 1526 1524 1523 1523 1521 1519 1518 1519 1518 1517 1517 1517 1517 1516 1514 1512 1510 1508 1506 1505 1503 1502 1501 1500 1501 1502 1504 1506 1510 1514 1519 1524 1530 1535 1540 1545 1550 1555 1559 1564 1568
1529 1526 1524 1521 1521 1519 1517 1516 1515 1515 1514 1513 1512 1513 1513 1512 1511 1510 1508 1505 1503 1501 1499 1498 1496 1495 1495 1496 1497 1499 1502 1506 1511 1515 1520 1526 1531 1536 1542 1547 1552 1556 1561
1526 1523 1520 1519 1517 1516 1515 1514 1513 1512 1511 1509 1509 1508 1507 1507 1507 1506 1505 1503 1500 1497 1495 1494 1493 1491 1491 1491 1491 1492 1494 1498 1502 1507 1512 1517 1522 1527 1533 1538 1543 1549 1553
1522 1520 1518 1516 1514 1512 1511 1509 1509 1507 1507 1505 1505 1505 1503 1503 1502 1501 1500 1500 1499 1495 1492 1491 1490 1488 1487 1486 1486 1487 1488 1491 1495 1498 1503 1508 1513 1518 1524 1529 1535 1540 1545
1517 1515 1514 1512 1510 1509 1507 1505 1505 1504 1502 1501 1500 1499 1498 1498 1498 1497 1496 1495 1494 1493 1490 1488 1487 1485 1483 1483 1483 1483 1484 1485 1487 1490 1494 1499 1504 1509 1515 1520 1526 1531 1537
1513 1511 1509 1507 1506 1504 1503 1501 1500 1499 1497 1496 1495 1495 1493 1492 1492 1492 1492 1491 1490 1489 1486 1485 1484 1482 1480 1479 1479 1479 1479 1480 1481 1484 1487 1491 1495 1500 1505 1511 1516 1523 1529
1508 1507 1504 1503 1501 1499 1497 1496 1494 1493 1492 1491 1490 1489 1488 1488 1487 1486 1486 1486 1485 1484 1483 1481 1480 1479 1477 1476 1475 1475 1475 1475 1477 1479 1482 1485 1489 1493 1497 1502 1508 1514 1520
1503 1501 1499 1497 1495 1494 1492 1490 1489 1487 1486 1486 1485 1484 1483 1482 1481 1481 1481 1480 1480 1479 1478 1477 1476 1475 1474 1473 1472 1472 1471 1471 1473 1474 1477 1480 1483 1486 1490 1495 1500 1506 1513
1498 1496 1494 1492 1490 1488 1486 1485 1483 1482 1481 1480 1479 1478 1477 1477 1476 1476 1475 1475 1475 1474 1474 1473 1472 1471 1470 1469 1469 1468 1468 1468 1469 1470 1472 1475 1478 1481 1484 1488 1494 1500 1506
1492 1490 1488 1486 1483 1482 1481 1480 1478 1477 1476 1475 1474 1472 1472 1471 1470 1470 1470 1470 1470 1470 1469 1468 1467 1467 1466 1466 1465 1465 1465 1465 1466 1466 1468 1471 1473 1476 1479 1484 1489 1494 1500
1487 1484 1482 1479 1478 1476 1475 1473 1472 1470 1470 1469 1468 1467 1466 1464 1463 1462 1462 1463 1463 1464 1464 1464 1463 1463 1462 1462 1462 1462 1462 1462 1462 1463 1465 1467 1469 1471 1475 1479 1484 1490 1495
1481 1478 1476 1473 1471 1470 1468 1467 1465 1464 1463 1462 1462 1460 1460 1460 1458 1458 1456 1455 1455 1456 1457 1457 1457 1458 1458 1459 1458 1458 1458 1458 1459 1459 1461 1463 1465 1468 1471 1474 1479 1485 1491
1475 1472 1470 1468 1465 1464 1462 1461 1459 1458 1457 1456 1455 1454 1453 1452 1452 1452 1451 1451 1450 1450 1450 1450 1450 1451 1453 1453 1453 1453 1453 1455 1455 1456 1458 1460 1462 1465 1468 1471 1475 1481 1486
1469 1467 1465 1462 1460 1458 1457 1455 1454 1452 1451 1450 1449 1448 1446 1446 1445 1444 1444 1444 1444 1444 1444 1443 1444 1444 1445 1447 1448 1449 1450 1451 1452 1452 1454 1457 1459 1462 1465 1468 1472 1477 1482
1464 1461 1459 1457 1455 1453 1451 1449 1448 1446 1445 1444 1443 1441 1439 1439 1438 1437 1437 1437 1436 1437 1438 1438 1437 1437 1438 1439 1441 1443 1445 1447 1447 1448 1450 1454 1456 1460 1464 1466 1470 1474 1479